Needles, CA

12:41 AM PST on February 09, 2016 (GMT -0800)
Needles

Weather History for KEED - March, 2014

Change the Weather History Date:

Saturday, March 8, 2014

  Actual Average Record
Temperature  
Mean Temperature 70 °F -  
Max Temperature 80 °F 74 °F 93 °F (1972)
Min Temperature 57 °F 48 °F 34 °F (1969)
Cooling Degree Days 6    
Growing Degree Days 20 (Base 50)    
Moisture  
Dew Point 22 °F    
Average Humidity 17    
Maximum Humidity 25    
Minimum Humidity 10    
Precipitation  
Precipitation 0.00 in - - ()
Sea Level Pressure  
Sea Level Pressure 30.07 in    
Wind  
Wind Speed 19 mph (North)    
Max Wind Speed 30 mph    
Max Gust Speed 41 mph    
Visibility 10 miles    
Events      
Averages and records for this station are not official NWS values.
T = Trace of Precipitation, MM = Missing Value Source: NWS Daily Summary

Daily Weather History Graph

Daily Weather History Graph

Search for Another Location

Airport or City:

Trip Planner

Search our weather history database for the weather conditions in past years. The results will help you decide how hot, cold, wet, or windy it might be!

Date:

Astronomy

Mar. 08, 2014 Rise Set
Actual Time 5:58 AM PST 5:40 PM PST
Civil Twilight 5:33 AM PST 6:05 PM PST
Nautical Twilight 5:04 AM PST 6:34 PM PST
Astronomical Twilight 4:34 AM PST 7:04 PM PST
Moon 10:58 AM PST (3/8) 12:27 AM PST (3/8)
Length of Visible Light 12h 32m
Length of Day
11h 41m
First Quarter, 53% of the Moon is Illuminated
Mar 8
First Quarter
Mar 16
Full
Mar 23
Last Quarter
Mar 30
New
Apr 7
First Quarter

Hourly Weather History & Observations

Time (PST) Temp. Dew Point Humidity Pressure Visibility Wind Dir Wind Speed Gust Speed Precip Events Conditions
12:56 AM 64.9 °F 23.0 °F 20% 29.98 in 10.0 mi North 20.7 mph 27.6 mph N/A   Clear
1:56 AM 63.0 °F 24.1 °F 23% 29.99 in 10.0 mi North 12.7 mph - N/A   Clear
2:56 AM 64.0 °F 24.1 °F 22% 29.99 in 10.0 mi North 20.7 mph 33.4 mph N/A   Clear
3:56 AM 63.0 °F 24.1 °F 23% 30.01 in 10.0 mi North 20.7 mph - N/A   Clear
4:56 AM 61.0 °F 25.0 °F 25% 30.05 in 10.0 mi North 16.1 mph - N/A   Clear
5:56 AM 61.0 °F 25.0 °F 25% 30.07 in 10.0 mi North 21.9 mph 29.9 mph N/A   Clear
6:56 AM 63.0 °F 26.1 °F 25% 30.10 in 10.0 mi NNE 29.9 mph 41.4 mph N/A   Clear
7:56 AM 64.9 °F 27.0 °F 24% 30.13 in 10.0 mi NNE 20.7 mph 29.9 mph N/A   Clear
8:56 AM 68.0 °F 25.0 °F 20% 30.14 in 10.0 mi NNE 27.6 mph 36.8 mph N/A   Clear
9:56 AM 71.1 °F 24.1 °F 17% 30.14 in 10.0 mi NNE 28.8 mph 35.7 mph N/A   Clear
10:56 AM 73.0 °F 23.0 °F 15% 30.12 in 10.0 mi NNE 23.0 mph 31.1 mph N/A   Clear
11:56 AM 75.9 °F 21.9 °F 13% 30.09 in 10.0 mi North 21.9 mph 29.9 mph N/A   Clear
12:56 PM 79.0 °F 21.0 °F 12% 30.06 in 10.0 mi NNE 20.7 mph 28.8 mph N/A   Clear
1:56 PM 80.1 °F 19.9 °F 11% 30.04 in 10.0 mi NNE 20.7 mph 31.1 mph N/A   Clear
2:56 PM 80.1 °F 19.0 °F 10% 30.02 in 10.0 mi NNE 21.9 mph - N/A   Clear
3:56 PM 80.1 °F 19.0 °F 10% 30.01 in 10.0 mi NNE 21.9 mph 32.2 mph N/A   Clear
4:56 PM 78.1 °F 19.9 °F 11% 30.03 in 10.0 mi North 23.0 mph 29.9 mph N/A   Clear
5:56 PM 73.9 °F 19.0 °F 13% 30.05 in 10.0 mi North 16.1 mph - N/A   Clear
6:56 PM 72.0 °F 18.0 °F 13% 30.07 in 10.0 mi North 16.1 mph - N/A   Clear
7:56 PM 70.0 °F 18.0 °F 14% 30.10 in 10.0 mi North 12.7 mph - N/A   Clear
8:56 PM 69.1 °F 18.0 °F 14% 30.12 in 10.0 mi North 11.5 mph - N/A   Clear
9:56 PM 66.0 °F 18.0 °F 16% 30.13 in 10.0 mi NNW 10.4 mph - N/A   Clear
10:56 PM 64.9 °F 18.0 °F 16% 30.14 in 10.0 mi Calm Calm - N/A   Clear
11:56 PM 57.9 °F 18.0 °F 21% 30.16 in 10.0 mi West 6.9 mph - N/A   Clear